Cadillac, MI

10:33 PM EDT on April 28, 2017 (GMT -0400)
Wexford County

Weather History for KCAD - October, 2013

Change the Weather History Date:

Thursday, October 3, 2013

  Actual Average Record
Temperature  
Mean Temperature 60 °F -  
Max Temperature 76 °F 62 °F 83 °F (1971)
Min Temperature 43 °F 41 °F 21 °F (1952)
Degree Days  
Heating Degree Days 6    
Growing Degree Days 10 (Base 50)    
Moisture  
Dew Point 55 °F    
Average Humidity 75    
Maximum Humidity 90    
Minimum Humidity 57    
Precipitation  
Precipitation 0.00 in - - ()
Sea Level Pressure  
Sea Level Pressure 29.97 in    
Wind  
Wind Speed 4 mph (SSE)    
Max Wind Speed 16 mph    
Max Gust Speed 21 mph    
Visibility 9 miles    
Events Rain    
Averages and records for this station are not official NWS values.
T = Trace of Precipitation, MM = Missing Value Source: NWS Daily Summary

Daily Weather History Graph

Daily Weather History Graph

Search for Another Location

Airport or City:

Trip Planner

Search our weather history database for the weather conditions in past years. The results will help you decide how hot, cold, wet, or windy it might be!

Date:

Astronomy

Oct. 03, 2013 Rise Set
Actual Time 7:42 AM EDT 7:18 PM EDT
Civil Twilight 7:13 AM EDT 7:47 PM EDT
Nautical Twilight 6:39 AM EDT 8:20 PM EDT
Astronomical Twilight 6:05 AM EDT 8:54 PM EDT
Moon 6:12 AM EDT (10/3) 6:27 PM EDT (10/3)
Length of Visible Light 12h 33m
Length of Day
11h 36m
Waning Crescent, 2% of the Moon is Illuminated
Oct 3
Waning Crescent
Oct 4
New
Oct 11
First Quarter
Oct 18
Full
Oct 26
Last Quarter

Hourly Weather History & Observations

Time (EDT) Temp. Dew Point Humidity Pressure Visibility Wind Dir Wind Speed Gust Speed Precip Events Conditions
12:15 AM 44.2 °F 40.8 °F 88% 30.08 in 10.0 mi Calm Calm - N/A   Clear
12:34 AM 43.9 °F 40.5 °F 88% 30.08 in 10.0 mi Calm Calm - N/A   Clear
12:55 AM 45.0 °F 41.4 °F 87% 30.06 in 10.0 mi Calm Calm - N/A   Clear
1:15 AM 46.4 °F 42.3 °F 85% 30.06 in 10.0 mi Calm Calm - N/A   Clear
1:34 AM 48.6 °F 42.8 °F 80% 30.05 in 10.0 mi Calm Calm - N/A   Clear
1:55 AM 51.4 °F 41.0 °F 68% 30.05 in 10.0 mi Calm Calm - N/A   Clear
2:14 AM 52.2 °F 41.5 °F 67% 30.04 in 10.0 mi ESE 5.8 mph - N/A   Clear
2:35 AM 54.0 °F 41.4 °F 62% 30.05 in 10.0 mi East 6.9 mph - N/A   Clear
2:55 AM 54.0 °F 41.0 °F 62% 30.04 in 10.0 mi ESE 5.8 mph - N/A   Clear
3:14 AM 56.5 °F 41.9 °F 58% 30.04 in 10.0 mi ESE 6.9 mph - N/A   Clear
3:35 AM 56.5 °F 42.1 °F 59% 30.03 in 10.0 mi ESE 4.6 mph - N/A   Clear
3:55 AM 54.9 °F 44.2 °F 67% 30.03 in 10.0 mi Calm Calm - N/A   Clear
4:14 AM 54.0 °F 45.7 °F 74% 30.03 in 10.0 mi East 5.8 mph - N/A   Clear
4:35 AM 52.9 °F 45.9 °F 77% 30.03 in 10.0 mi East 3.5 mph - N/A   Clear
4:55 AM 51.6 °F 44.8 °F 77% 30.03 in 10.0 mi Calm Calm - N/A   Clear
5:14 AM 51.4 °F 45.7 °F 81% 30.03 in 10.0 mi Calm Calm - N/A   Scattered Clouds
5:35 AM 51.4 °F 46.4 °F 83% 30.03 in 10.0 mi Calm Calm - N/A   Mostly Cloudy
5:55 AM 51.4 °F 46.9 °F 85% 30.03 in 10.0 mi Calm Calm - N/A   Overcast
6:14 AM 52.7 °F 47.7 °F 83% 30.02 in 10.0 mi Calm Calm - N/A   Overcast
6:35 AM 54.0 °F 47.1 °F 78% 30.02 in 10.0 mi ENE 3.5 mph - N/A   Overcast
6:55 AM 52.7 °F 46.8 °F 80% 30.01 in 10.0 mi ESE 5.8 mph - N/A   Overcast
7:14 AM 56.5 °F 47.3 °F 71% 30.00 in 10.0 mi East 3.5 mph - N/A   Overcast
7:35 AM 56.5 °F 47.7 °F 72% 30.00 in 10.0 mi ENE 5.8 mph - N/A   Overcast
7:55 AM 56.5 °F 48.2 °F 74% 30.00 in 10.0 mi East 5.8 mph - N/A   Overcast
8:14 AM 54.0 °F 46.8 °F 77% 30.00 in 10.0 mi ENE 5.8 mph - N/A   Overcast
8:35 AM 56.5 °F 49.3 °F 77% 29.99 in 10.0 mi East 4.6 mph - N/A   Overcast
8:54 AM 56.5 °F 49.1 °F 76% 29.99 in 10.0 mi East 3.5 mph - N/A   Scattered Clouds
9:14 AM 60.4 °F 47.5 °F 62% 29.99 in 10.0 mi SE 8.1 mph - N/A   Clear
9:35 AM 61.9 °F 47.7 °F 60% 29.99 in 10.0 mi SE 6.9 mph - N/A   Clear
9:54 AM 63.7 °F 48.4 °F 57% 29.98 in 10.0 mi SE 6.9 mph - N/A   Scattered Clouds
10:15 AM 64.6 °F 49.3 °F 58% 29.98 in 10.0 mi SSE 6.9 mph - N/A   Scattered Clouds
10:35 AM 65.3 °F 51.6 °F 61% 29.98 in 10.0 mi SSE 6.9 mph - N/A   Scattered Clouds
10:54 AM 66.6 °F 54.1 °F 64% 29.97 in 10.0 mi South 5.8 mph - N/A   Scattered Clouds
11:15 AM 69.1 °F 57.0 °F 65% 29.96 in 10.0 mi SE 10.4 mph - N/A   Clear
11:35 AM 71.6 °F 59.9 °F 66% 29.96 in 10.0 mi SSE 8.1 mph - N/A   Clear
11:54 AM 71.6 °F 60.1 °F 67% 29.95 in 10.0 mi South 9.2 mph - N/A   Clear
12:15 PM 73.4 °F 61.9 °F 67% 29.95 in 10.0 mi SSW 12.7 mph - N/A   Scattered Clouds
12:35 PM 74.3 °F 61.7 °F 65% 29.95 in 10.0 mi South 13.8 mph - N/A   Mostly Cloudy
12:54 PM 74.3 °F 62.4 °F 66% 29.95 in 10.0 mi South 13.8 mph - N/A   Mostly Cloudy
1:15 PM 74.3 °F 62.4 °F 66% 29.95 in 10.0 mi South 12.7 mph - N/A   Scattered Clouds
1:35 PM 75.0 °F 63.7 °F 68% 29.94 in 7.0 mi SSW 11.5 mph - N/A   Mostly Cloudy
1:54 PM 74.3 °F 62.8 °F 67% 29.94 in 10.0 mi SSW 10.4 mph - N/A   Mostly Cloudy
2:15 PM 76.6 °F 64.2 °F 65% 29.93 in 10.0 mi South 12.7 mph 17.3 mph N/A   Mostly Cloudy
2:34 PM 76.6 °F 64.9 °F 67% 29.93 in 10.0 mi SSW 9.2 mph - N/A   Overcast
2:54 PM 76.6 °F 63.7 °F 64% 29.93 in 10.0 mi SSW 16.1 mph - N/A   Mostly Cloudy
3:15 PM 76.6 °F 64.0 °F 65% 29.92 in 10.0 mi SW 9.2 mph - N/A   Scattered Clouds
3:34 PM 76.6 °F 63.9 °F 65% 29.91 in 10.0 mi SW 13.8 mph 18.4 mph N/A   Scattered Clouds
3:55 PM 76.6 °F 64.4 °F 66% 29.91 in 10.0 mi SW 13.8 mph 20.7 mph N/A   Scattered Clouds
4:14 PM 76.6 °F 64.8 °F 67% 29.91 in 10.0 mi SW 12.7 mph 18.4 mph N/A   Scattered Clouds
4:34 PM 74.3 °F 64.6 °F 72% 29.91 in 10.0 mi WSW 9.2 mph 18.4 mph N/A   Mostly Cloudy
4:55 PM 74.3 °F 64.6 °F 72% 29.92 in 10.0 mi SW 11.5 mph - N/A   Mostly Cloudy
5:14 PM 71.6 °F 63.3 °F 75% 29.92 in 10.0 mi SW 15.0 mph - N/A   Overcast
5:34 PM 71.6 °F 64.6 °F 78% 29.93 in 10.0 mi SW 10.4 mph - N/A   Overcast
5:55 PM 71.6 °F 65.3 °F 80% 29.93 in 10.0 mi WSW 5.8 mph - N/A   Overcast
6:14 PM 71.6 °F 65.8 °F 82% 29.93 in 10.0 mi WSW 4.6 mph - N/A   Overcast
6:35 PM 71.6 °F 66.2 °F 83% 29.92 in 10.0 mi West 5.8 mph - N/A   Overcast
6:55 PM 70.9 °F 66.2 °F 85% 29.92 in 5.0 mi Calm Calm - N/A   Haze
7:14 PM 69.1 °F 64.6 °F 86% 29.92 in 7.0 mi Calm Calm - N/A   Overcast
7:35 PM 69.1 °F 65.3 °F 88% 29.93 in 5.0 mi Calm Calm - N/A   Overcast
7:55 PM 67.8 °F 64.4 °F 89% 29.93 in 3.0 mi Calm Calm - N/A Rain Rain
8:14 PM 66.6 °F 63.5 °F 90% 29.94 in 4.0 mi Calm Calm - N/A   Overcast
8:35 PM 66.7 °F 63.5 °F 89% 29.94 in 4.0 mi Calm Calm - N/A   Overcast
8:55 PM 67.1 °F 64.0 °F 90% 29.94 in 5.0 mi Calm Calm - N/A   Overcast
9:14 PM 65.3 °F 62.1 °F 89% 29.94 in 10.0 mi Calm Calm - N/A   Overcast
9:35 PM 66.6 °F 63.1 °F 89% 29.95 in 7.0 mi Calm Calm - N/A   Overcast
9:55 PM 66.6 °F 63.5 °F 90% 29.95 in 5.0 mi Calm Calm - N/A   Overcast
10:14 PM 66.6 °F 63.5 °F 90% 29.95 in 5.0 mi Calm Calm - N/A   Overcast
10:35 PM 65.1 °F 62.2 °F 90% 29.94 in 4.0 mi Calm Calm - N/A   Mostly Cloudy
10:55 PM 64.0 °F 61.2 °F 90% 29.94 in 7.0 mi Calm Calm - N/A   Overcast
11:14 PM 64.0 °F 61.2 °F 90% 29.93 in 10.0 mi East 4.6 mph - N/A   Overcast
11:35 PM 62.8 °F 59.9 °F 90% 29.94 in 10.0 mi Calm Calm - N/A   Mostly Cloudy